METAR Formatted Surface Weather Observation
Issued by NWS Pocatello, ID

Home | Current Version | Previous Version | Text Only | Print | Product List | Glossary On
Versions: 1 2 3 4 5 6 7 8 9 10 11 12 13 14 15 16 17 18 19 20 21 22 23 24 25 26 27 28 29 30 31 32 33 34 35 36 37
156
SAUS45 KPIH 271952
MTRSNT
METAR KSNT 271951Z AUTO 36011G15KT 29/M01 A3028 RMK AO1 SLP142
T02941006



USA.gov is the U.S. government's official web portal to all federal, state and local government web resources and services.